Regional Weather Roundup
Issued by NWS

Home | Current Version | Previous Version | Text Only | Print | Product List | Glossary On
Versions: 1 2 3 4 5 6 7 8 9 10 11 12 13 14 15 16 17 18 19 20 21 22 23 24 25 26 27 28 29 30 31 32 33 34 35 36 37 38 39 40 41 42 43 44 45 46 47 48 49
000
ASUS46 KSEW 051510
RWRWA

WASHINGTON REGIONAL WEATHER ROUNDUP
NATIONAL WEATHER SERVICE SEATTLE WA
800 AM PDT SUN JUL 05 2015

NOTE:"FAIR" INDICATES FEW OR NO CLOUDS BELOW 12,000 FEET WITH NO
SIGNIFICANT WEATHER AND/OR OBSTRUCTIONS TO VISIBILITY.

WAZ505-507>509-051600-
SEATTLE, TACOMA, EVERETT, AND VICINITY

CITY           SKY/WX    TMP DP  RH WIND       PRES   REMARKS
EVERETT        SUNNY     66  53  63 N5        29.86R
BOEING FIELD   SUNNY     71  54  54 CALM      29.83S
RENTON         SUNNY     66  52  60 CALM      29.83S
SEATAC AIRPORT MOSUNNY   73  54  51 W5        29.85R
JBLM-MCCHORD   SUNNY     69  51  51 NW2       29.84R
PUYALLUP       FAIR      72  52  49 CALM      29.85R
BREMERTON      SUNNY     70  54  56 NE9       29.87R
JBLM-FT LEWIS  SUNNY     68  51  54 SW1       29.83S
TACOMA NARROWS SUNNY     68  52  56 NE3       29.85R
$$

WAZ001-503-506-510-514-515-051600-
NORTH INTERIOR

CITY           SKY/WX    TMP DP  RH WIND       PRES   REMARKS
BELLINGHAM     SUNNY     78  42  27 N13G21    29.83S
FRIDAY HARBOR  SUNNY     68  53  58 N7        29.86R
EASTSOUND      SUNNY     64  57  77 CALM      29.84S
PORT ANGELES   SUNNY     72  54  53 SW5       29.88R
PORT TOWNSEND  FAIR      72  52  49 VRB6G13   29.84R
NAS WHIDBEY    MOSUNNY   62  54  74 CALM      29.88S
ARLINGTON      SUNNY     61  48  63 CALM      29.86S
BURLINGTON     SUNNY     63  55  77 CALM      29.85R
$$

WAZ020-022-039-040-504-511-512-051600-
SOUTHWEST INTERIOR

CITY           SKY/WX    TMP DP  RH WIND       PRES   REMARKS
SHELTON        SUNNY     70  55  59 CALM      29.82R
OLYMPIA        SUNNY     66  55  67 CALM      29.84R
CHEHALIS       FAIR      66  57  72 CALM      29.84S
KELSO          MOSUNNY   63  55  77 CALM      29.87S
VANCOUVER      MOSUNNY   70  57  63 SW3       29.83R
SCAPPOOSE, OR  MOSUNNY   69  59  70 CALM      29.83R
PORTLAND, OR   MOSUNNY   71  59  65 NW5       29.83R
$$

WAZ021-516-517-051600-
WASHINGTON COAST

CITY           SKY/WX    TMP DP  RH WIND       PRES   REMARKS
FORKS          SUNNY     61  56  83 CALM      29.83R HAZE
HOQUIAM        CLOUDY    57  56  96 SE5       29.84S FOG
ASTORIA, OR    CLOUDY    59  56  89 SE6       29.84R
$$

WAZ019-023-024-040-518-519-051600-
CASCADE MOUNTAINS AND COLUMBIA GORGE

CITY           SKY/WX    TMP DP  RH WIND       PRES   REMARKS
TROUTDALE, OR  MOSUNNY   73  58  59 CALM      29.82R
THE DALLES, OR MOSUNNY   78  55  44 NW5       29.80R
$$

WAZ026-027-041>044-520-521-051600-
EAST SLOPES

CITY           SKY/WX    TMP DP  RH WIND       PRES   REMARKS
OMAK           SUNNY     75  39  27 N12       29.91R
WENATCHEE      SUNNY     77  44  30 NW10      29.87R
ELLENSBURG     SUNNY     73  44  35 NE3       29.88S
YAKIMA         SUNNY     77  49  37 W6        29.84S
$$

WAZ028-034-035-051600-
COLUMBIA BASIN

CITY           SKY/WX    TMP DP  RH WIND       PRES   REMARKS
EPHRATA        SUNNY     82  38  20 N23G30    29.84R
MOSES LAKE     SUNNY     82  37  20 N22G29    29.83R
PASCO          MOSUNNY   78  50  37 NW10      29.78S
HERMISTON, OR  MOSUNNY   80  43  26 W5        29.80R
$$

WAZ036>038-051600-
NORTHEAST WASHINGTON

CITY           SKY/WX    TMP DP  RH WIND       PRES   REMARKS
SPOKANE GEIGER MOSUNNY   77  48  35 NE15      29.87R
SPOKANE FELTS  SUNNY     78  49  35 NE8G17    29.86R
FAIRCHILD AFB  SUNNY     76  47  35 NE14      29.88R
COEURDALENE,ID SUNNY     73  48  40 N22       29.88S
DEER PARK      SUNNY     75  47  36 NE17G23   29.89R
$$

WAZ029>033-051600-
SOUTHEAST WASHINGTON

CITY           SKY/WX    TMP DP  RH WIND       PRES   REMARKS
PULLMAN        MOSUNNY   77  47  34 W9        29.86R
LEWISTON, ID   MOSUNNY   77  48  35 CALM      29.79R
WALLA WALLA    MOSUNNY   77  43  29 SW15      29.80R
PENDLETON, OR  MOSUNNY   79  38  22 NW10      29.83R
$$


USA.gov is the U.S. government's official web portal to all federal, state and local government web resources and services.